Location: Lake Sonoma
(38.7200°N, 123.0564°W)
Time: 23:33:29
(UTC-07:00)

Amateur Radio Satellites - All Passes

Search period start: 07 July 2015 23:03
Search period end: 08 July 2015 23:03
Location: Lake Sonoma, 38.7200°N, 123.0564°W

Satellite Date Start Highest point End Downlink Frequencies (MHz)
Time Altitude Azimuth
FUNcube-1 07 Jul 23:09:36 23:13:11 26° 265° (W) 23:16:41 145.935
AISAT 07 Jul 23:10:36 23:15:00 59° 74° (ENE) 23:19:25 437.250
DELFI C3 07 Jul 23:13:12 23:16:07 19° 267° (W) 23:18:57 145.870
M-CUBED/EXP-1 PRIME 07 Jul 23:13:37 23:17:00 22° 295° (WNW) 23:20:27 437.505
CUBEBUG 1 07 Jul 23:16:33 23:20:34 35° 71° (ENE) 23:24:37 437.445
ANTELSAT 07 Jul 23:19:32 23:23:40 37° 98° (E) 23:27:53 437.575/2403.000
TIGRISAT 07 Jul 23:30:01 23:34:17 47° 99° (E) 23:38:39 435.000
POPSAT HIP 1 07 Jul 23:32:56 23:35:57 20° 93° (E) 23:39:05 437.405
QB50P2 07 Jul 23:33:09 23:36:17 20° 93° (E) 23:39:30 145.880/145.840
UWE-3 07 Jul 23:35:27 23:36:40 11° 271° (W) 23:37:37 435.000/436.395/437.385
Cosmos 2499 07 Jul 23:39:09 23:46:03 31° 273° (W) 23:53:06 435.465 / 435.565
SO-50 07 Jul 23:47:54 23:50:20 14° 38° (NE) 23:52:55 436.795
DX 1 07 Jul 23:54:06 23:57:44 25° 265° (W) 00:01:19 434.975-435.025
ESTCUBE 1 07 Jul 23:56:39 00:01:10 70° 258° (WSW) 00:05:43 437.505/2401.250
VELOX 1 07 Jul 23:58:50 00:03:04 41° 262° (W) 00:07:17 145.980
PCSat 07 Jul 23:59:00 00:03:49 32° 52° (NE) 00:08:41 145.827
HUMSAT D 07 Jul 23:59:01 00:01:45 17° 268° (W) 00:04:23 437.325/437.525
SPROUT 08 Jul 00:03:45 00:07:33 32° 71° (ENE) 00:11:25 437.525
UKube-1 08 Jul 00:09:40 00:12:46 18° 267° (W) 00:15:44 .
RS-15 08 Jul 00:09:52 00:14:32 15° 100° (E) 00:20:14 29.354- 29.394
QB50P1 08 Jul 00:10:41 00:14:49 55° 100° (E) 00:18:57 145.935-145.965
UNISAT 6 08 Jul 00:11:25 00:15:46 56° 285° (WNW) 00:20:12 437.425
NANOSAT C BR1 08 Jul 00:23:16 00:27:29 78° 102° (ESE) 00:31:41 145.865
BUGSAT 1 08 Jul 00:28:26 00:32:25 54° 100° (E) 00:36:20 437.445
DUCHIFAT 1 08 Jul 00:28:49 00:33:01 88° 101° (ESE) 00:37:13 145.980
TISAT 1 08 Jul 00:29:37 00:33:34 41° 73° (ENE) 00:37:34 437.305
50 SAT 08 Jul 00:30:16 00:32:14 13° 269° (W) 00:34:01 437.505
POLYITAN 1 08 Jul 00:39:02 00:43:14 66° 285° (WNW) 00:47:24 437.675
AISAT 08 Jul 00:50:17 00:52:01 12° 271° (W) 00:53:29 437.250
CUBEBUG 1 08 Jul 00:53:45 00:57:02 20° 267° (W) 01:00:12 437.445
ANTELSAT 08 Jul 00:57:00 01:00:13 19° 292° (WNW) 01:03:21 437.575/2403.000
TIGRISAT 08 Jul 01:08:00 01:10:44 16° 293° (WNW) 01:13:18 435.000
POPSAT HIP 1 08 Jul 01:08:09 01:11:54 31° 289° (WNW) 01:15:36 437.405
QB50P2 08 Jul 01:08:30 01:12:14 30° 289° (WNW) 01:15:53 145.880/145.840
BEESAT 08 Jul 01:08:55 01:12:18 20° 67° (ENE) 01:15:50 436.000
SWISSCUBE 08 Jul 01:24:16 01:28:25 31° 70° (ENE) 01:32:39 437.505
SO-50 08 Jul 01:26:44 01:31:43 83° 56° (NE) 01:36:35 436.795
ITUPSAT 1 08 Jul 01:31:27 01:35:41 33° 70° (ENE) 01:40:00 437.325
SPROUT 08 Jul 01:40:28 01:43:44 20° 267° (W) 01:46:51 437.525
PCSat 08 Jul 01:42:22 01:47:16 34° 250° (WSW) 01:52:04 145.827
QB50P1 08 Jul 01:48:27 01:50:15 12° 294° (WNW) 01:51:52 145.935-145.965
BUGSAT 1 08 Jul 02:06:02 02:07:27 11° 294° (WNW) 02:08:40 437.445
TISAT 1 08 Jul 02:06:59 02:09:34 15° 269° (W) 02:11:59 437.305
RS-15 08 Jul 02:14:26 02:25:14 76° 117° (ESE) 02:36:25 29.354- 29.394
Cosmos 2491 08 Jul 02:14:42 02:23:12 54° 77° (ENE) 02:31:41 435.465 / 435.565
Oscar 19 08 Jul 02:18:46 02:23:40 45° 98° (E) 02:28:36 437.125/150
AIST 1 08 Jul 02:31:36 02:35:42 40° 78° (ENE) 02:39:46
ITAMSAT 1 08 Jul 02:40:10 02:43:44 19° 92° (E) 02:47:27 435.822/435.867
BEESAT 08 Jul 02:45:22 02:49:53 41° 262° (W) 02:54:25 436.000
YUBILEINY 08 Jul 02:45:47 02:53:26 38° 87° (E) 03:01:18 435.215
KKS-1 08 Jul 02:54:39 02:58:48 40° 72° (ENE) 03:02:59 437.445
Gurwin Techsat 1B 08 Jul 02:56:41 03:01:17 30° 95° (E) 03:05:56 435.225
SWISSCUBE 08 Jul 03:02:16 03:06:17 26° 265° (W) 03:10:15 437.505
ITUPSAT 1 08 Jul 03:09:41 03:13:37 24° 266° (W) 03:17:29 437.325
SO-50 08 Jul 03:10:28 03:11:39 11° 253° (WSW) 03:12:30 436.795
STARS 08 Jul 03:36:19 03:40:41 71° 76° (ENE) 03:45:04 437.465
MOZHAYETS 4 08 Jul 03:43:11 03:45:25 14° 65° (ENE) 03:47:53
HORYU 2 08 Jul 03:51:04 03:52:20 11° 89° (E) 03:53:54 437.375
Oscar 19 08 Jul 03:58:55 04:02:45 21° 294° (WNW) 04:06:27 437.125/150
JAS-2 08 Jul 04:01:46 04:08:16 42° 97° (E) 04:15:24 435.910
AIST 1 08 Jul 04:10:30 04:13:01 15° 273° (W) 04:15:20
Cosmos 2491 08 Jul 04:12:17 04:19:42 31° 275° (W) 04:26:49 435.465 / 435.565
ITAMSAT 1 08 Jul 04:18:32 04:23:33 48° 288° (WNW) 04:28:31 435.822/435.867
RS-15 08 Jul 04:29:03 04:38:51 34° 323° (NW) 04:48:48 29.354- 29.394
AO-7 08 Jul 04:31:04 04:38:36 37° 97° (E) 04:46:13 29.400- 29.500
KKS-1 08 Jul 04:32:38 04:35:39 17° 268° (W) 04:38:29 437.445
Gurwin Techsat 1B 08 Jul 04:36:33 04:41:16 32° 291° (WNW) 04:45:53 435.225
YUBILEINY 08 Jul 04:41:58 04:50:11 44° 286° (WNW) 04:58:21 435.215
Cosmos 2504 08 Jul 05:04:29 05:10:03 28° 87° (E) 05:15:50 435.465 / 435.565
MOZHAYETS 4 08 Jul 05:17:42 05:22:13 57° 260° (W) 05:26:46
HORYU 2 08 Jul 05:25:02 05:29:27 61° 286° (WNW) 05:33:52 437.375
BEESAT 2 08 Jul 05:39:19 05:40:30 11° 109° (ESE) 05:41:55 435.950
JAS-2 08 Jul 05:47:01 05:53:14 38° 291° (WNW) 05:59:56 435.910
CUBESAT XI-V 08 Jul 05:56:23 06:00:25 29° 70° (ENE) 06:04:32 437.345
ISS 08 Jul 05:56:37 05:58:24 14° 130° (SE) 06:00:17 145.825
VERMONT LUNAR 08 Jul 05:58:21 06:01:08 31° 154° (SSE) 06:03:57 437.305
Cubesat XI-IV 08 Jul 06:21:28 06:24:28 16° 90° (E) 06:27:44 437.490
AO-7 08 Jul 06:23:38 06:31:35 48° 295° (WNW) 06:39:23 29.400- 29.500
RS-15 08 Jul 06:49:16 06:56:12 17° 356° (N) 07:03:16 29.354- 29.394
STRAND 1 08 Jul 06:53:50 06:58:38 42° 71° (ENE) 07:03:30 437.568
Cosmos 2504 08 Jul 06:55:25 07:02:00 44° 284° (WNW) 07:08:34 435.465 / 435.565
BEESAT 3 08 Jul 06:55:45 06:59:49 73° 301° (WNW) 07:03:55 437.485
O/OREOS (USA 219) 08 Jul 06:59:57 07:04:20 61° 108° (ESE) 07:08:46 437.305
BEESAT 2 08 Jul 07:14:03 07:18:06 60° 303° (WNW) 07:22:12 435.950
PHONESAT 2.4 08 Jul 07:16:33 07:19:26 25° 151° (SSE) 07:22:20 2401.200-2431.200
AIST 2 08 Jul 07:22:49 07:26:45 38° 115° (ESE) 07:30:44 435.215
CUTE-I 08 Jul 07:24:12 07:29:31 63° 101° (E) 07:34:49 437.470
GONETS M04 08 Jul 07:27:31 07:30:53 13° 78° (ENE) 07:34:56
DANDE 08 Jul 07:29:52 07:35:56 35° 96° (E) 07:40:48 436.750
ISS 08 Jul 07:31:20 07:34:31 53° 325° (NW) 07:37:42 145.825
PRISM 08 Jul 07:33:14 07:37:24 80° 257° (WSW) 07:41:38 437.425
CUBESAT XI-V 08 Jul 07:33:51 07:37:50 26° 266° (W) 07:41:46 437.345
VERMONT LUNAR 08 Jul 07:34:47 07:37:54 75° 351° (N) 07:41:00 437.305
CUSAT 1 08 Jul 07:38:52 07:44:53 54° 97° (E) 07:49:27 437.405
Cubesat XI-IV 08 Jul 07:59:46 08:05:05 61° 287° (WNW) 08:10:20 437.490
M-CUBED/EXP-1 PRIME 08 Jul 08:26:20 08:29:17 30° 67° (ENE) 08:32:23 437.505
STRAND 1 08 Jul 08:34:04 08:38:03 22° 267° (W) 08:41:54 437.568
O/OREOS (USA 219) 08 Jul 08:42:00 08:44:16 13° 307° (NW) 08:46:21 437.305
CUTE 1.7 + AOD 2 08 Jul 08:51:30 08:53:58 15° 91° (E) 08:56:38 437.475
PHONESAT 2.4 08 Jul 08:53:47 08:57:13 88° 341° (NNW) 09:00:40 2401.200-2431.200
BRITE-PL 08 Jul 08:54:24 08:58:33 55° 99° (E) 09:02:36 437.365/2234.400
CANX-2 08 Jul 08:55:05 08:58:07 19° 92° (E) 09:01:16 2200.000
AIST 2 08 Jul 09:02:07 09:05:28 21° 313° (NW) 09:08:45 435.215
RS-15 08 Jul 09:04:51 09:14:12 28° 31° (NNE) 09:24:08 29.354- 29.394
CUTE-I 08 Jul 09:05:44 09:09:08 17° 296° (WNW) 09:12:18 437.470
ISS 08 Jul 09:09:57 09:11:30 13° 343° (NNW) 09:13:02 145.825
VERMONT LUNAR 08 Jul 09:11:49 09:14:54 64° 6° (N) 09:18:01 437.305
DANDE 08 Jul 09:13:07 09:19:03 31° 283° (WNW) 09:23:41 436.750
GONETS M04 08 Jul 09:17:45 09:26:31 79° 95° (E) 09:35:17
AUBIESAT-1 08 Jul 09:22:06 09:25:22 50° 255° (WSW) 09:28:47 437.475
CUSAT 1 08 Jul 09:23:56 09:27:28 16° 286° (WNW) 09:30:18 437.405
SEEDS 08 Jul 09:31:40 09:35:36 35° 97° (E) 09:39:33 437.485
AAUSAT CUBESAT 2 08 Jul 09:32:10 09:35:34 24° 94° (E) 09:39:01 437.432
GOMX 1 08 Jul 09:45:44 09:49:51 63° 285° (WNW) 09:53:59 467.674
UWE-3 08 Jul 09:48:28 09:50:01 12° 90° (E) 09:51:50 435.000/436.395/437.385
HO-68 08 Jul 09:50:39 09:57:49 70° 103° (ESE) 10:04:58 435.675
COMPASS 1 08 Jul 10:01:31 10:05:44 64° 100° (E) 10:09:56 437.405
M-CUBED/EXP-1 PRIME 08 Jul 10:02:42 10:04:20 13° 264° (W) 10:05:51 437.505
DOVE 4 08 Jul 10:08:35 10:12:40 58° 285° (WNW) 10:16:48 437.250
ANTELSAT 08 Jul 10:17:47 10:21:22 27° 71° (ENE) 10:25:02 437.575/2403.000
Cosmos 2499 08 Jul 10:21:36 10:27:58 40° 89° (E) 10:34:34 435.465 / 435.565
CINEMA 3 08 Jul 10:21:58 10:26:11 85° 100° (E) 10:30:32 145.822/145.860
Oscar 11 08 Jul 10:23:09 10:27:16 40° 98° (E) 10:31:23 145.826/435.025
ZACube-1 08 Jul 10:24:31 10:27:59 24° 95° (E) 10:31:35 437.345
POPSAT HIP 1 08 Jul 10:25:38 10:27:39 14° 66° (ENE) 10:29:52 437.405
QB50P2 08 Jul 10:25:54 10:28:05 14° 67° (ENE) 10:30:26 145.880/145.840
CUTE 1.7 + AOD 2 08 Jul 10:26:03 10:30:07 41° 287° (WNW) 10:34:09 437.475
TIGRISAT 08 Jul 10:27:52 10:31:43 34° 72° (ENE) 10:35:34 435.000
CANX-2 08 Jul 10:30:16 10:34:09 33° 288° (WNW) 10:38:01 2200.000
PHONESAT 2.4 08 Jul 10:31:56 10:35:21 63° 3° (N) 10:38:46 2401.200-2431.200
BRITE-PL 08 Jul 10:35:11 10:36:39 11° 295° (WNW) 10:37:54 437.365/2234.400
CUBEBUG 2 08 Jul 10:40:54 10:45:08 64° 100° (E) 10:49:30 437.445
VERMONT LUNAR 08 Jul 10:48:45 10:51:46 47° 202° (SSW) 10:54:47 437.305
DELFI C3 08 Jul 10:52:07 10:56:09 61° 100° (E) 11:00:11 145.870
FUNcube-1 08 Jul 10:58:07 11:02:20 58° 100° (E) 11:06:37 145.935
QB50P1 08 Jul 11:02:09 11:05:58 34° 72° (ENE) 11:09:50 145.935-145.965
AISAT 08 Jul 11:04:42 11:06:19 12° 89° (E) 11:08:12 437.250
AAUSAT CUBESAT 2 08 Jul 11:07:35 11:11:07 26° 289° (WNW) 11:14:36 437.432
SEEDS 08 Jul 11:08:08 11:11:09 18° 292° (WNW) 11:14:03 437.485
UNISAT 6 08 Jul 11:09:02 11:13:18 75° 258° (WSW) 11:17:35 437.425
NANOSAT C BR1 08 Jul 11:14:19 11:18:22 47° 74° (ENE) 11:22:27 145.865
RS-15 08 Jul 11:17:06 11:28:54 80° 57° (ENE) 11:41:10 29.354- 29.394
BUGSAT 1 08 Jul 11:17:09 11:20:53 32° 72° (ENE) 11:24:39 437.445
GONETS M04 08 Jul 11:18:03 11:24:31 21° 296° (WNW) 11:30:33
DUCHIFAT 1 08 Jul 11:19:37 11:23:43 53° 74° (ENE) 11:27:50 145.980
UWE-3 08 Jul 11:22:45 11:26:55 53° 285° (WNW) 11:31:10 435.000/436.395/437.385
POLYITAN 1 08 Jul 11:30:22 11:34:35 77° 76° (ENE) 11:38:49 437.675
HO-68 08 Jul 11:39:37 11:44:59 23° 300° (WNW) 11:50:06 435.675
COMPASS 1 08 Jul 11:39:41 11:40:56 11° 295° (WNW) 11:41:55 437.405
HUMSAT D 08 Jul 11:42:21 11:46:34 81° 104° (ESE) 11:50:48 437.325/437.525
DX 1 08 Jul 11:42:48 11:47:06 61° 101° (E) 11:51:22 434.975-435.025
VELOX 1 08 Jul 11:50:30 11:54:38 39° 98° (E) 11:58:45 145.980
ESTCUBE 1 08 Jul 11:51:08 11:54:57 27° 95° (E) 11:58:48 437.505/2401.250
ANTELSAT 08 Jul 11:54:45 11:58:10 23° 266° (W) 12:01:31 437.575/2403.000
UKube-1 08 Jul 11:56:49 12:01:09 81° 102° (ESE) 12:05:28 .
POPSAT HIP 1 08 Jul 11:59:02 12:03:09 49° 261° (W) 12:07:16 437.405
QB50P2 08 Jul 11:59:31 12:03:37 47° 261° (W) 12:07:43 145.880/145.840
Oscar 11 08 Jul 12:00:15 12:03:09 17° 292° (WNW) 12:05:55 145.826/435.025
ZACube-1 08 Jul 12:00:42 12:04:19 26° 289° (WNW) 12:07:55 437.345
50 SAT 08 Jul 12:04:45 12:08:40 73° 101° (E) 12:12:37 437.505
TIGRISAT 08 Jul 12:05:35 12:08:36 18° 268° (W) 12:11:29 435.000
PHONESAT 2.4 08 Jul 12:09:59 12:13:24 63° 200° (SSW) 12:16:49 2401.200-2431.200
Cosmos 2499 08 Jul 12:14:58 12:21:14 32° 288° (WNW) 12:27:30 435.465 / 435.565
CUBEBUG 2 08 Jul 12:20:06 12:21:25 11° 294° (WNW) 12:22:29 437.445
ISS 08 Jul 12:24:12 12:26:31 18° 23° (NNE) 12:28:51 145.825
DELFI C3 08 Jul 12:29:52 12:30:46 10° 294° (WNW) 12:31:27 145.870
FUNcube-1 08 Jul 12:36:29 12:38:15 12° 294° (WNW) 12:39:49 145.935
QB50P1 08 Jul 12:38:59 12:41:58 18° 267° (W) 12:44:49 145.935-145.965
AISAT 08 Jul 12:39:00 12:43:20 55° 286° (WNW) 12:47:36 437.250
CUBEBUG 1 08 Jul 12:42:28 12:46:51 86° 105° (ESE) 12:51:10 437.445
NANOSAT C BR1 08 Jul 12:52:23 12:54:31 13° 270° (W) 12:56:25 145.865
BUGSAT 1 08 Jul 12:53:21 12:56:26 19° 267° (W) 12:59:24 437.445
YUBILEINY 08 Jul 12:58:18 13:03:20 17° 61° (ENE) 13:08:54 435.215
DUCHIFAT 1 08 Jul 12:58:19 12:59:54 12° 271° (W) 13:01:15 145.980
DX 1 08 Jul 13:21:06 13:22:53 12° 296° (WNW) 13:24:27 434.975-435.025
SPROUT 08 Jul 13:27:02 13:31:19 77° 101° (E) 13:35:35 437.525
VELOX 1 08 Jul 13:27:52 13:30:55 18° 293° (WNW) 13:33:49 145.980
ESTCUBE 1 08 Jul 13:27:56 13:31:46 27° 290° (WNW) 13:35:31 437.505/2401.250
RS-15 08 Jul 13:30:58 13:40:29 28° 255° (WSW) 13:49:40 29.354- 29.394
Oscar 19 08 Jul 13:34:15 13:39:15 57° 74° (ENE) 13:44:18 437.125/150
PHONESAT 2.4 08 Jul 13:48:57 13:51:01 15° 214° (SSW) 13:53:01 2401.200-2431.200
TISAT 1 08 Jul 13:50:38 13:54:51 88° 288° (WNW) 13:59:01 437.305
ITAMSAT 1 08 Jul 13:56:42 14:00:56 26° 67° (ENE) 14:05:17 435.822/435.867
ISS 08 Jul 13:59:59 14:03:13 69° 220° (SW) 14:06:24 145.825
Gurwin Techsat 1B 08 Jul 14:16:21 14:21:18 42° 71° (ENE) 14:26:18 435.225
JAS-2 08 Jul 14:17:51 14:19:10 11° 59° (ENE) 14:20:51 435.910
PCSat 08 Jul 14:39:20 14:44:13 37° 111° (ESE) 14:49:11 145.827
BEESAT 08 Jul 14:46:35 14:51:18 55° 100° (E) 14:56:00 436.000
YUBILEINY 08 Jul 14:52:53 15:01:43 87° 85° (E) 15:10:33 435.215
AIST 1 08 Jul 14:59:53 15:03:31 26° 90° (E) 15:07:13
SWISSCUBE 08 Jul 15:02:52 15:07:42 89° 96° (E) 15:12:30 437.505
ITUPSAT 1 08 Jul 15:10:27 15:15:18 86° 283° (WNW) 15:20:06 437.325
Cosmos 2491 08 Jul 15:13:36 15:22:15 65° 93° (E) 15:30:57 435.465 / 435.565
BEESAT 3 08 Jul 15:15:37 15:19:29 41° 54° (NE) 15:23:18 437.485
Oscar 19 08 Jul 15:15:57 15:19:03 15° 270° (W) 15:21:55 437.125/150
AO-7 08 Jul 15:28:26 15:36:12 46° 64° (ENE) 15:44:05 29.400- 29.500
STARS 08 Jul 15:28:52 15:31:08 14° 91° (E) 15:33:36 437.465
BEESAT 2 08 Jul 15:34:22 15:38:22 52° 56° (NE) 15:42:17 435.950
O/OREOS (USA 219) 08 Jul 15:35:16 15:35:28 10° 50° (NE) 15:35:57 437.305
ITAMSAT 1 08 Jul 15:35:29 15:40:18 36° 263° (W) 15:45:06 435.822/435.867
SO-50 08 Jul 15:39:55 15:44:12 37° 114° (ESE) 15:48:40 436.795
AIST 2 08 Jul 15:46:11 15:49:13 19° 46° (NE) 15:52:18 435.215
Gurwin Techsat 1B 08 Jul 15:57:17 16:01:29 23° 267° (W) 16:05:33 435.225
JAS-2 08 Jul 15:58:18 16:03:29 87° 254° (WSW) 16:09:02 435.910
HORYU 2 08 Jul 16:21:41 16:26:06 79° 257° (WSW) 16:30:32 437.375
PCSat 08 Jul 16:22:55 16:27:42 31° 308° (NW) 16:32:27 145.827
KKS-1 08 Jul 16:23:08 16:27:35 81° 284° (WNW) 16:32:00 437.445
BEESAT 08 Jul 16:25:48 16:28:44 16° 295° (WNW) 16:31:29 436.000
JUGNU 08 Jul 16:27:41 16:29:43 12° 178° (S) 16:31:46 437.505
AIST 1 08 Jul 16:37:31 16:41:09 24° 286° (WNW) 16:44:42
Cosmos 2504 08 Jul 16:41:15 16:48:39 51° 78° (ENE) 16:56:37 435.465 / 435.565
YUBILEINY 08 Jul 16:52:05 16:57:33 17° 280° (W) 17:02:29 435.215
BEESAT 3 08 Jul 16:54:38 16:57:07 16° 249° (WSW) 16:59:26 437.485
STARS 08 Jul 17:03:41 17:07:53 46° 287° (WNW) 17:12:04 437.465
CUTE-I 08 Jul 17:09:02 17:10:39 12° 61° (ENE) 17:12:34 437.470
O/OREOS (USA 219) 08 Jul 17:11:05 17:15:39 87° 250° (WSW) 17:20:12 437.305
Cosmos 2491 08 Jul 17:12:40 17:19:54 26° 293° (WNW) 17:26:50 435.465 / 435.565
BEESAT 2 08 Jul 17:14:10 17:16:01 12° 250° (WSW) 17:17:39 435.950
MOZHAYETS 4 08 Jul 17:14:13 17:18:31 36° 96° (E) 17:22:49
SO-50 08 Jul 17:20:45 17:24:51 27° 313° (NW) 17:29:00 436.795
AO-7 08 Jul 17:21:25 17:29:07 39° 262° (W) 17:36:45 29.400- 29.500
AIST 2 08 Jul 17:24:02 17:28:00 41° 244° (WSW) 17:31:52 435.215
SRMSAT 08 Jul 17:29:19 17:30:46 11° 174° (S) 17:32:15 437.500
Cubesat XI-IV 08 Jul 17:41:49 17:45:59 24° 66° (ENE) 17:50:17 437.490
CUSAT 1 08 Jul 18:18:41 18:20:11 14° 74° (ENE) 18:21:49 437.405
Cosmos 2504 08 Jul 18:34:03 18:40:36 30° 273° (W) 18:47:19 435.465 / 435.565
CUTE-I 08 Jul 18:44:40 18:50:02 89° 90° (E) 18:55:27 437.470
MOZHAYETS 4 08 Jul 18:51:59 18:55:32 21° 292° (WNW) 18:58:57
STRAND 1 08 Jul 19:07:00 19:09:54 16° 90° (E) 19:13:02 437.568
SRMSAT 08 Jul 19:17:17 19:19:04 11° 184° (S) 19:20:47 437.500
GOMX 1 08 Jul 19:17:24 19:19:08 12° 66° (ENE) 19:21:06 467.674
PRISM 08 Jul 19:18:09 19:20:36 15° 92° (E) 19:23:11 437.425
Cubesat XI-IV 08 Jul 19:20:47 19:25:51 42° 262° (W) 19:30:57 437.490
GONETS M04 08 Jul 19:30:08 19:37:54 36° 71° (ENE) 19:45:48
CUBESAT XI-V 08 Jul 19:30:57 19:35:40 87° 103° (ESE) 19:40:18 437.345
DOVE 4 08 Jul 19:38:28 19:39:47 11° 66° (ENE) 19:41:20 437.250
CANX-2 08 Jul 19:48:23 19:49:58 12° 66° (ENE) 19:51:47 2200.000
DANDE 08 Jul 19:56:09 19:58:11 20° 266° (W) 20:00:10 436.750
BRITE-PL 08 Jul 20:02:52 20:08:09 60° 75° (ENE) 20:13:06 437.365/2234.400
Cosmos 2499 08 Jul 20:14:38 20:18:05 14° 61° (ENE) 20:22:15 435.465 / 435.565
HO-68 08 Jul 20:17:42 20:24:22 46° 67° (ENE) 20:31:08 435.675
AAUSAT CUBESAT 2 08 Jul 20:22:51 20:25:01 14° 67° (ENE) 20:27:21 437.432
SEEDS 08 Jul 20:23:00 20:26:08 22° 69° (ENE) 20:29:24 437.485
STRAND 1 08 Jul 20:44:31 20:49:34 57° 287° (WNW) 20:54:34 437.568
COMPASS 1 08 Jul 20:51:29 20:55:14 35° 73° (ENE) 20:59:05 437.405
GOMX 1 08 Jul 20:51:47 20:56:51 73° 258° (WSW) 21:01:35 467.674
PRISM 08 Jul 20:52:19 20:56:14 39° 288° (WNW) 21:00:07 437.425
AUBIESAT-1 08 Jul 21:04:23 21:06:15 13° 95° (E) 21:08:25 437.475
DOVE 4 08 Jul 21:12:22 21:17:09 71° 259° (W) 21:21:39 437.250
Oscar 11 08 Jul 21:16:57 21:20:32 27° 70° (ENE) 21:24:12 145.826/435.025
CUTE 1.7 + AOD 2 08 Jul 21:17:06 21:21:17 70° 258° (WSW) 21:25:32 437.475
ZACube-1 08 Jul 21:20:18 21:22:52 17° 68° (ENE) 21:25:35 437.345
CANX-2 08 Jul 21:21:20 21:25:28 55° 260° (W) 21:29:38 2200.000
CINEMA 3 08 Jul 21:22:21 21:26:45 66° 75° (ENE) 21:30:59 145.822/145.860
GONETS M04 08 Jul 21:26:46 21:34:57 46° 271° (W) 21:43:02
CUBEBUG 2 08 Jul 21:38:03 21:42:04 43° 74° (ENE) 21:46:04 437.445
DELFI C3 08 Jul 21:38:11 21:41:41 30° 71° (ENE) 21:45:15 145.870
M-CUBED/EXP-1 PRIME 08 Jul 21:41:34 21:45:42 38° 103° (ESE) 21:50:04 437.505
BRITE-PL 08 Jul 21:43:49 21:47:01 15° 269° (W) 21:49:51 437.365/2234.400
FUNcube-1 08 Jul 21:52:50 21:56:40 37° 72° (ENE) 22:00:30 145.935
AAUSAT CUBESAT 2 08 Jul 21:56:18 22:00:17 44° 262° (W) 22:04:16 437.432
SEEDS 08 Jul 21:58:08 22:01:48 28° 265° (W) 22:05:26 437.485
AISAT 08 Jul 22:02:39 22:03:26 11° 64° (ENE) 22:04:29 437.250
Cosmos 2499 08 Jul 22:04:40 22:12:44 76° 81° (E) 22:21:23 435.465 / 435.565
HO-68 08 Jul 22:05:57 22:12:17 33° 264° (W) 22:18:30 435.675
UWE-3 08 Jul 22:18:27 22:22:40 79° 258° (WSW) 22:26:50 435.000/436.395/437.385
COMPASS 1 08 Jul 22:28:16 22:31:04 17° 268° (W) 22:33:44 437.405
HUMSAT D 08 Jul 22:32:48 22:36:42 45° 74° (ENE) 22:40:38 437.325/437.525
AUBIESAT-1 08 Jul 22:36:56 22:41:17 62° 290° (WNW) 22:45:51 437.475
DX 1 08 Jul 22:36:58 22:41:07 44° 73° (ENE) 22:45:18 434.975-435.025
VELOX 1 08 Jul 22:46:52 22:50:45 31° 70° (ENE) 22:54:42 145.980
50 SAT 08 Jul 22:47:41 22:51:04 31° 72° (ENE) 22:54:31 437.505
ESTCUBE 1 08 Jul 22:49:51 22:53:18 22° 68° (ENE) 22:56:52 437.505/2401.250
UKube-1 08 Jul 22:50:05 22:54:20 57° 74° (ENE) 22:58:36 .
Oscar 11 08 Jul 22:53:10 22:56:41 24° 266° (W) 23:00:10 145.826/435.025
ZACube-1 08 Jul 22:55:05 22:59:00 37° 263° (W) 23:02:51 437.345
